User: anonymous   Login
Location: Unspecified
(0.0000°N, 0.0000°E)
Time: 12:44:29
(UTC+00:00)
Language:

VELOX C1 - Orbit

View from above orbital plane
View from above orbital plane
View from above satellite
View from above satellite

Ground track
Ground track

The orbit data is extracted from the following two-line orbital elements,

1 41166U 15077A   18053.54041074 +.00001031 +00000-0 +22479-4 0  9993
2 41166 014.9824 155.9316 0011383 217.4416 142.5111 15.09476808120847
Epoch (UTC): 22 February 2018 12:58:11
Eccentricity: 0.0011383
inclination: 14.9824°
perigee height: 530 km
apogee height: 545 km
right ascension of ascending node: 155.9316°
argument of perigee: 217.4416°
revolutions per day: 15.09476808
mean anomaly at epoch: 142.5111°
orbit number at epoch: 12084

The dashed part of the orbit path shows where the satellite is in the earth's shadow,  

DLR